Location: Amarillo Post Office Jordan Station
(35.1907°N, 101.9342°W)
Time: 13:38:51
(UTC+00:00)

GEOS 3 Rocket - Pass Details

Date: 24 January 2021
Orbit: 772 x 848 km, 115.0° (Epoch: 04 March)

Event Time Altitude Azimuth Distance (km) Brightness Sun altitude
Rises 12:30:24 0° 131° (SE) 3,355 7.9 -16.7°
Reaches altitude 10° 12:32:45 10° 126° (SE) 2,434 7.1 -16.2°
Maximum altitude 12:37:52 52° 52° (NE) 1,040 4.4 -15.2°
Drops below altitude 10° 12:43:05 10° 337° (NNW) 2,472 5.8 -14.2°
Enters shadow 12:44:17 - 335° (NNW) 2,944 6.2 -13.9°
